Location: Wanzleben
(52.0609°N, 11.4408°E)
Time: 06:52:42
(UTC+00:00)

Cosmos 1626 - Pass Details

Date: 18 September 2020
Orbit: 490 x 495 km, 82.5° (Epoch: 19 October)

Event Time Altitude Azimuth Distance (km) Brightness Sun altitude
Rises 20:12:29 0° 344° (NNW) 2,591 6.6 -25.0°
Reaches altitude 10° 20:14:39 10° 339° (NNW) 1,702 5.6 -25.3°
Enters shadow 20:17:44 43° 291° (WNW) 703 3.2 -25.6°
